[[{"header":{"parameterUnit":"m.s-1","parameterCategory":1,"la1":30.2991,"la2":30.254,"lo1":-89.0895,"lo2":-89.0444,"dy":0.0017,"dx":0.0017,"nx":28,"ny":28,"refTime":"2025-04-07T21:00:00:Z","depth":0,"parameterNumber":2,"parameterNumberName":"U-component_of_WINDS"},"data":[0,0,0,0,0,0,0,0,0,0,0,0,0,0,0,0,0,0,0,0,0,0,0,0,0,0,0,0,0,0,0,0,0,0,0,0,0,0,0,0,0,0,0,0,0,0,0,0,0,0,0,0,0,0,0,0,0,0,2.3916,2.3915,0,2.388,2.388,2.3879,2.3887,2.3888,2.3888,2.3889,2.385,2.3848,2.3847,0,0,0,0,0,0,0,0,0,0,0,0,0,2.3986,2.3985,2.3916,2.3915,2.3915,2.388,2.388,2.3879,2.3887,2.3888,2.3889,2.3889,2.3851,2.3849,2.3847,0,0,0,0,0,0,0,0,0,0,0,0,0,2.3954,2.3984,2.3916,2.3914,2.3914,2.388,2.388,2.3879,2.3887,2.3888,2.3889,2.389,2.3851,2.3849,2.3846,2.3811,0,0,2.3839,2.3838,0,0,0,0,0,0,0,0,2.3955,2.3951,2.3915,2.3914,2.3914,2.3889,2.389,2.3856,2.3887,2.3897,2.3889,2.389,2.3862,2.3859,2.385,2.3809,2.3807,2.3839,2.3837,2.3836,2.3835,0,0,0,0,0,0,0,2.3958,2.3952,2.3901,2.3915,2.3914,2.3914,2.3911,2.3884,2.3874,2.3896,2.3897,2.3893,2.3862,2.3852,2.3849,2.3807,2.3839,2.3836,2.3835,2.3834,2.3731,2.373,0,0,0,0,0,0,2.3961,2.3954,2.3903,2.39,2.3938,2.3912,2.3908,2.3896,2.3875,2.3872,2.3892,2.3893,2.3856,2.3852,2.3848,2.3802,2.3836,2.3834,2.3832,2.3733,2.3731,2.373,0,0,0,0,0,0,2.3962,2.3956,2.3904,2.3927,2.3921,2.391,2.3896,2.3895,2.3885,2.3871,2.3869,2.3884,2.3857,2.3851,2.3819,2.3801,2.3832,2.383,2.3734,2.3732,2.373,2.3711,0,0,0,0,0,0,2.3964,2.3957,2.3944,2.3927,2.392,2.3877,2.3895,2.3893,2.3881,2.3882,2.3863,2.3861,2.3857,2.3823,2.3817,2.3798,2.3828,2.3736,2.3733,2.3731,2.3714,2.3709,2.3705,0,0,0,0,0,2.3967,2.394,2.3943,2.3937,2.3904,2.3876,2.3872,2.3869,2.388,2.3866,2.3856,2.3862,2.3804,2.382,2.3813,2.3793,2.3737,2.3734,2.3731,2.3715,2.371,2.3705,0,0,0,0,0,0,2.3955,2.3938,2.3941,2.3909,2.3894,2.3878,2.386,2.3863,2.3845,2.3847,2.3843,2.3838,2.3805,2.3796,2.3814,2.3755,2.3772,2.3768,2.3762,2.3757,2.3753,2.3754,2.3826,0,0,0,0,0,2.3949,2.3929,2.3915,2.3887,2.388,2.3871,2.3859,2.3858,2.3842,2.3836,2.3824,2.3808,2.3786,2.3771,2.3751,2.3713,2.3707,2.3696,2.3692,2.3688,2.3684,2.366,2.3654,2.3721,2.3721,2.3721,0,0,2.3935,2.3923,2.3911,2.3885,2.3873,2.3851,2.3866,2.3843,2.3825,2.3832,2.38,2.3792,2.3773,2.3737,2.3721,2.3728,2.3664,2.3685,2.3682,2.3679,2.3656,2.365,2.3644,2.3719,2.3719,2.372,0,0,2.3898,2.3889,2.3863,2.3851,2.3833,2.3828,2.3822,2.3805,2.3799,2.3768,2.3771,2.375,2.3713,2.3699,2.3687,2.3643,2.3645,2.3636,2.3613,2.359,2.3585,2.358,2.3561,2.3555,2.3632,2.3632,2.3632,0,2.3883,2.3851,2.385,2.3825,2.3812,2.3818,2.379,2.3778,2.3754,2.3744,2.3754,2.3706,2.3694,2.3653,2.3642,2.3634,2.3624,2.3637,2.3586,2.3581,2.3577,2.3558,2.3552,2.3631,2.3631,2.3631,2.3631,0,2.3832,2.3809,2.3791,2.3767,2.3752,2.3727,2.372,2.3705,2.3705,2.3697,2.3664,2.365,2.3624,2.3615,2.3615,2.3574,2.3579,2.3587,2.3603,2.3569,2.3551,2.3545,2.3629,2.363,2.363,2.363,0,0,2.3786,2.3761,2.3754,2.3742,2.3722,2.3704,2.3678,2.3654,2.3639,2.3623,2.3598,2.3566,2.3573,2.3559,2.3558,2.3538,2.3499,2.3548,2.3548,2.3537,2.3449,2.344,2.3432,2.3502,2.3501,2.35,2.3449,0,2.3745,2.3699,2.3696,2.3654,2.3631,2.3635,2.3612,2.3596,2.3588,2.3567,2.3559,2.3534,2.3547,2.3538,2.3519,2.3508,2.3481,2.3512,2.3477,2.3476,2.3478,2.3424,2.3415,2.3368,2.3443,2.3442,2.3441,0,2.3691,2.3672,2.3627,2.3608,2.3598,2.3577,2.3553,2.3534,2.3515,2.3511,2.3495,2.3495,2.3466,2.3485,2.3442,2.3463,2.3449,2.3441,2.3439,2.3433,2.3454,2.3413,2.3353,2.3344,2.3431,2.3432,2.3433,0,2.3658,2.3621,2.3589,2.3579,2.3557,2.3541,2.3531,2.3514,2.3498,2.3478,2.3467,2.3443,2.3429,2.341,2.3403,2.3418,2.336,2.3379,2.3353,2.3353,2.3338,2.3338,2.3271,2.3334,2.3334,2.3335,2.3335,0,2.3611,2.3582,2.3573,2.3553,2.352,2.3517,2.3484,2.3475,2.3459,2.3435,2.3438,2.3416,2.341,2.3386,2.338,2.3344,2.3339,2.3332,2.3331,2.333,2.333,2.3318,2.332,2.3333,2.3333,2.3333,2.3334,0,2.3567,2.3561,2.3525,2.3506,2.3501,2.3477,2.3461,2.344,2.3433,2.3402,2.3395,2.3383,2.3355,2.3347,2.3313,2.3309,2.3265,2.3268,2.3271,2.327,2.3243,2.3244,2.3163,2.315,2.3225,2.3224,2.3224,0,2.3536,2.3514,2.3493,2.3477,2.3466,2.3442,2.3426,2.3422,2.3405,2.338,2.3362,2.3334,2.3311,2.3265,2.3252,2.3226,2.3226,2.3199,2.3222,2.3221,2.3221,2.3221,2.3217,2.3194,2.3193,2.3192,2.3192,0,2.3481,2.3478,2.3455,2.343,2.3411,2.3392,2.3373,2.336,2.3352,2.3333,2.3304,2.3286,2.3251,2.3221,2.3194,2.3182,2.3184,2.3185,2.3177,2.3174,2.3175,2.3171,2.3256,2.3186,2.3187,2.3187,2.3188,2.3188,2.344,2.3419,2.34,2.3374,2.3359,2.3341,2.3319,2.3309,2.3285,2.3256,2.3255,2.3222,2.3202,2.3165,2.3151,2.3124,2.3132,2.3121,2.3118,2.3114,2.311,2.3183,2.312,2.312,2.312,2.312,2.3121,0,2.3381,2.3369,2.3345,2.3318,2.3296,2.3302,2.3281,2.3262,2.3233,2.3215,2.3192,2.3156,2.3128,2.3113,2.3083,2.3065,2.3065,2.3057,2.3056,2.3052,2.3107,2.3115,2.3057,2.3057,2.3057,2.3057,2.3057,2.3057,2.3348,2.3312,2.3306,2.3262,2.325,2.3218,2.3204,2.3187,2.3171,2.3132,2.3108,2.3099,2.308,2.3049,2.3022,2.3019,2.3006,2.2996,2.2993,2.3043,2.3049,2.3055,2.3063,2.2995,2.2995,2.294,2.294,2.2939]},{"header":{"parameterUnit":"m.s-1","parameterCategory":1,"la1":30.2991,"la2":30.254,"lo1":-89.0895,"lo2":-89.0444,"dy":0.0017,"dx":0.0017,"nx":28,"ny":28,"refTime":"2025-04-07T21:00:00:Z","depth":0,"parameterNumber":3,"parameterNumberName":"V-component_of_WINDS"},"data":[0,0,0,0,0,0,0,0,0,0,0,0,0,0,0,0,0,0,0,0,0,0,0,0,0,0,0,0,0,0,0,0,0,0,0,0,0,0,0,0,0,0,0,0,0,0,0,0,0,0,0,0,0,0,0,0,0,0,-4.2882,-4.2885,0,-4.3122,-4.3125,-4.3127,-4.3107,-4.3104,-4.31,-4.3097,-4.3343,-4.3353,-4.3362,0,0,0,0,0,0,0,0,0,0,0,0,0,-4.2406,-4.2415,-4.2882,-4.2885,-4.2888,-4.3122,-4.3125,-4.3128,-4.3108,-4.3104,-4.3099,-4.3095,-4.334,-4.3351,-4.3363,0,0,0,0,0,0,0,0,0,0,0,0,0,-4.2626,-4.2418,-4.2881,-4.2906,-4.2911,-4.3121,-4.3125,-4.3129,-4.3109,-4.3103,-4.3098,-4.3093,-4.3336,-4.335,-4.3365,-4.3567,0,0,-4.3411,-4.3417,0,0,0,0,0,0,0,0,-4.2614,-4.2644,-4.2899,-4.2905,-4.291,-4.3079,-4.3047,-4.3276,-4.311,-4.3034,-4.3097,-4.309,-4.326,-4.328,-4.3338,-4.3578,-4.3589,-4.3412,-4.3421,-4.3427,-4.3432,0,0,0,0,0,0,0,-4.2598,-4.2633,-4.2977,-4.2903,-4.291,-4.2905,-4.293,-4.3091,-4.3174,-4.304,-4.3039,-4.3068,-4.3261,-4.3323,-4.3343,-4.3592,-4.3411,-4.3425,-4.3434,-4.344,-4.401,-4.4016,0,0,0,0,0,0,-4.2577,-4.262,-4.2969,-4.2984,-4.2745,-4.2918,-4.2946,-4.303,-4.3173,-4.3189,-4.3072,-4.3066,-4.33,-4.3326,-4.3352,-4.3598,-4.3427,-4.3441,-4.345,-4.4004,-4.4011,-4.4018,0,0,0,0,0,0,-4.2567,-4.2609,-4.296,-4.2802,-4.2846,-4.2932,-4.3027,-4.3038,-4.31,-4.3197,-4.3212,-4.312,-4.3297,-4.3331,-4.3513,-4.3606,-4.3448,-4.3462,-4.3996,-4.4006,-4.4015,-4.409,0,0,0,0,0,0,-4.2554,-4.2605,-4.2683,-4.2804,-4.2855,-4.3118,-4.3032,-4.3047,-4.3126,-4.312,-4.3246,-4.3261,-4.3295,-4.3491,-4.3528,-4.3623,-4.3473,-4.3989,-4.4001,-4.4012,-4.408,-4.4101,-4.4119,0,0,0,0,0,-4.2537,-4.2695,-4.2687,-4.2729,-4.2954,-4.3123,-4.3152,-4.3188,-4.3133,-4.3212,-4.3274,-4.3257,-4.3589,-4.351,-4.3551,-4.3653,-4.3983,-4.3997,-4.4011,-4.4071,-4.4097,-4.4119,0,0,0,0,0,0,-4.2583,-4.2711,-4.2704,-4.2906,-4.3004,-4.3119,-4.322,-4.3214,-4.333,-4.3319,-4.3359,-4.3388,-4.3572,-4.363,-4.3539,-4.3855,-4.3779,-4.3802,-4.3811,-4.3836,-4.3855,-4.3838,-4.3486,0,0,0,0,0,-4.2616,-4.2743,-4.2848,-4.3016,-4.3065,-4.3134,-4.3209,-4.3228,-4.3331,-4.3373,-4.3448,-4.3549,-4.3676,-4.3759,-4.3881,-4.4088,-4.4115,-4.4178,-4.4197,-4.4213,-4.4233,-4.4347,-4.4376,-4.4064,-4.4064,-4.4063,0,0,-4.2687,-4.2773,-4.285,-4.3027,-4.3105,-4.3236,-4.3169,-4.331,-4.3407,-4.3394,-4.3571,-4.363,-4.3745,-4.394,-4.403,-4.3995,-4.4324,-4.423,-4.4242,-4.4254,-4.4364,-4.4393,-4.442,-4.4073,-4.4071,-4.407,0,0,-4.2883,-4.296,-4.3109,-4.3188,-4.3307,-4.3351,-4.3387,-4.3504,-4.3542,-4.3721,-4.3713,-4.3829,-4.4047,-4.4129,-4.4199,-4.4425,-4.4414,-4.4463,-4.4566,-4.4677,-4.4701,-4.4723,-4.4805,-4.4833,-4.4482,-4.4483,-4.4483,0,-4.2957,-4.3153,-4.3186,-4.3329,-4.3407,-4.34,-4.3551,-4.3626,-4.3779,-4.3833,-4.379,-4.4063,-4.414,-4.4355,-4.441,-4.4466,-4.4509,-4.445,-4.4695,-4.4718,-4.4739,-4.4817,-4.4847,-4.4488,-4.4487,-4.4487,-4.4486,0,-4.3238,-4.3373,-4.3479,-4.3626,-4.3716,-4.3862,-4.3917,-4.4004,-4.4015,-4.4064,-4.4245,-4.4336,-4.4477,-4.4529,-4.4541,-4.4746,-4.472,-4.4686,-4.4611,-4.4773,-4.4847,-4.4877,-4.4496,-4.4494,-4.4492,-4.4491,0,0,-4.3472,-4.3634,-4.3673,-4.374,-4.3869,-4.3975,-4.412,-4.4257,-4.4331,-4.4436,-4.4559,-4.4742,-4.4712,-4.4791,-4.4812,-4.4909,-4.5082,-4.4863,-4.4866,-4.4902,-4.5315,-4.5341,-4.5375,-4.5075,-4.5081,-4.5085,-4.5305,0,-4.3682,-4.3939,-4.3973,-4.4201,-4.4327,-4.4321,-4.4448,-4.4541,-4.459,-4.4704,-4.4757,-4.4887,-4.4836,-4.4884,-4.498,-4.5041,-4.5166,-4.5025,-4.519,-4.5196,-4.5164,-4.5413,-4.5442,-4.5645,-4.5334,-4.5339,-4.5343,0,-4.3963,-4.4075,-4.4315,-4.4427,-4.4481,-4.4594,-4.4722,-4.4831,-4.4936,-4.4965,-4.5053,-4.5062,-4.5211,-4.5128,-4.5335,-4.5239,-4.5308,-4.5348,-4.5356,-4.5375,-4.5281,-4.544,-4.5711,-4.5742,-4.5388,-4.5385,-4.5382,0,-4.4111,-4.4322,-4.4493,-4.455,-4.4685,-4.4764,-4.4824,-4.4923,-4.5003,-4.5115,-4.5167,-4.5295,-4.5365,-4.5464,-4.5506,-4.5441,-4.5711,-4.5631,-4.574,-4.5739,-4.5799,-4.5795,-4.6086,-4.584,-4.584,-4.5839,-4.5838,0,-4.4344,-4.4491,-4.4562,-4.4667,-4.4832,-4.4869,-4.5031,-4.5088,-4.5176,-4.5293,-4.5295,-4.5404,-4.5452,-4.5569,-4.5603,-4.5769,-4.5801,-4.5828,-4.5836,-4.583,-4.5826,-4.5877,-4.5865,-4.5847,-4.5845,-4.5844,-4.5842,0,-4.4538,-4.4591,-4.4778,-4.4889,-4.492,-4.5037,-4.5133,-4.5235,-4.5281,-4.5429,-4.5465,-4.5539,-4.5676,-4.5728,-4.5895,-4.5918,-4.6111,-4.6106,-4.6076,-4.6078,-4.6185,-4.6174,-4.652,-4.6568,-4.6289,-4.6291,-4.6293,0,-4.4685,-4.4798,-4.4921,-4.4999,-4.5061,-4.5187,-4.5268,-4.5308,-4.5392,-4.552,-4.5607,-4.5743,-4.5855,-4.6074,-4.6143,-4.6271,-4.627,-4.6382,-4.6289,-4.6279,-4.6273,-4.6267,-4.6279,-4.64,-4.6403,-4.6405,-4.6407,0,-4.4939,-4.4959,-4.5076,-4.5203,-4.53,-4.5401,-4.55,-4.5564,-4.5618,-4.5713,-4.5853,-4.594,-4.611,-4.6246,-4.6376,-4.6437,-4.6433,-4.6435,-4.6468,-4.6463,-4.6442,-4.6456,-4.6125,-4.6428,-4.6426,-4.6424,-4.6423,-4.6422,-4.5115,-4.5215,-4.5317,-4.5448,-4.5526,-4.5618,-4.5719,-4.5778,-4.5896,-4.6038,-4.6053,-4.6204,-4.6305,-4.648,-4.6547,-4.6665,-4.6635,-4.6682,-4.6694,-4.6705,-4.6713,-4.6421,-4.6689,-4.6688,-4.6688,-4.6688,-4.6687,0,-4.537,-4.5435,-4.5554,-4.5692,-4.5795,-4.5779,-4.5887,-4.5974,-4.6107,-4.6201,-4.631,-4.6471,-4.6602,-4.668,-4.6812,-4.6892,-4.6893,-4.6925,-4.6921,-4.6935,-4.6732,-4.6692,-4.6922,-4.6922,-4.6922,-4.6922,-4.6922,-4.6922,-4.5516,-4.5685,-4.5717,-4.5925,-4.5988,-4.6136,-4.6199,-4.6284,-4.6359,-4.6539,-4.6648,-4.6697,-4.6785,-4.6923,-4.7043,-4.7062,-4.7111,-4.7147,-4.7164,-4.6973,-4.6949,-4.6926,-4.6889,-4.7157,-4.7157,-4.7357,-4.7359,-4.736]}]]